Location: Handeloh
(53.2500°N, 9.8330°E)
Time: 08:52:46
(UTC+01:00)

S-56A Canister/Altair - Pass Details

Date: 23 November 2019
Orbit: 633 x 2500 km, 38.9° (Epoch: 09 December)

Event Time Altitude Azimuth Distance (km) Brightness Sun altitude
Rises 14:11:12 0° 196° (SSW) 5,892 13.8 11.7°
Reaches altitude 10° 14:17:34 10° 177° (S) 4,576 12.6 11.2°
Maximum altitude 14:23:30 15° 148° (SSE) 3,792 11.5 10.7°
Drops below altitude 10° 14:28:35 10° 118° (ESE) 3,814 11.1 10.3°
Sets 14:33:00 0° 97° (E) 4,425 11.1 9.9°
